Regional Weather Roundup
Issued by NWS Sterling, VA

Home | Current Version | Previous Version | Graphics & Text | Print | Product List | Glossary On
Versions: 1 2 3 4 5 6 7 8 9 10 11 12 13 14 15 16 17 18 19 20 21 22 23 24 25 26 27 28 29 30 31 32 33 34 35 36 37 38 39 40 41 42 43 44 45 46 47 48 49
000
ASUS41 KLWX 271310
RWRLWX

REGIONAL WEATHER ROUNDUP
NATIONAL WEATHER SERVICE BALTIMORE MD/WASHINGTON DC
900 AM EDT MON JUL 27 2015

Note: "FAIR" indicates few or no clouds below 12,000 feet
with no significant weather and/or obstructions to visibility.
 TC=TEMPERATURE CELSIUS

 * =Non NWS site. Station does not report precipitation (e.g. rain,
    snow, etc.), thunder, or fog.

DCZ001-MDZ009-015-VAZ040>042-051-053>054-271400-
WASHINGTON METRO

CITY           SKY/WX    TMP DP  RH WIND       PRES   REMARKS
WASHINGTON NAT CLOUDY    78  71  79 SE5       30.00S
DULLES         CLOUDY    75  69  81 CALM      30.00R
ANDREWS AFB    CLOUDY    73  71  93 S5        30.00R
FT BELVOIR     CLOUDY    76  71  84 SE6       30.00R
QUANTICO       CLOUDY    77  71  82 S12       30.00R
COLLEGE PARK*  CLOUDY    73  72  94 CALM      30.00S
LEESBURG*      PTSUNNY   77  73  88 S8        30.01S
MANASSAS*      SUNNY     75  70  83 S6        29.99S
GAITHERSBURG*  CLOUDY    72  70  94 CALM      30.05R

$$

MDZ006>007-011-014-271400-
BALTIMORE METRO

CITY           SKY/WX    TMP DP  RH WIND       PRES   REMARKS
BWI AIRPORT    CLOUDY    74  71  91 CALM      30.00R
MD SCIENCE CTR   N/A     76  70  82 MISG      30.01R
MARTIN STATE   CLOUDY    75  73  94 S6        30.02R
ANNAPOLIS      CLOUDY    76  71  85 SE8       30.00R
FORT MEADE*    CLOUDY    72  68  88 CALM      30.03R

$$

MDZ012-015-019>023-271400-
MARYLAND EASTERN SHORE

CITY           SKY/WX    TMP DP  RH WIND       PRES   REMARKS
OCEAN CITY     RAIN      70  69  97 S3        30.04F FOG
SALISBURY      LGT RAIN  69  69 100 SE5       30.04R FOG
BAY BRIDGE AP*   N/A     73  70  88 SE10      30.00S
CAMBRIDGE*     CLOUDY    72  70  94 SE6       30.02S

$$

MDZ017>025-271400-
SOUTHERN MARYLAND

CITY           SKY/WX    TMP DP  RH WIND       PRES   REMARKS
PATUXENT RIVER CLOUDY    75  72  90 S7        30.01S
ST INIGOES     CLOUDY    76  71  85 S7        30.02R
LEONARDTOWN*   CLOUDY    73  70  88 CALM      30.03R

$$

MDZ003>005-271400-
NORTH CENTRAL MARYLAND

CITY           SKY/WX    TMP DP  RH WIND       PRES   REMARKS
FREDERICK*     PTSUNNY   73  70  88 CALM      30.04R FOG
HAGERSTOWN APT CLOUDY    74  68  81 E3        30.02R
WESTMINSTER*   PTSUNNY   73  70  88 CALM      30.02S

$$

MDZ501>502-271400-
WESTERN MARYLAND

CITY           SKY/WX    TMP DP  RH WIND       PRES   REMARKS
OAKLAND*       MOSUNNY   72 N/A N/A W3        30.11S
CUMBERLAND*    SUNNY     77  70  78 CALM      30.04F

$$

VAZ025>031-271400-
SHENANDOAH VALLEY

CITY           SKY/WX    TMP DP  RH WIND       PRES   REMARKS
WINCHESTER*    MOSUNNY   77  70  78 CALM      30.01R
FRONT ROYAL*   FAIR      73  70  88 SW3       30.00R
LURAY*         FAIR      77  75  94 CALM      30.01S
NEW MARKET*    FAIR      74  71  91 SW3       30.00S
STAUNTON*      CLOUDY    75  70  84 CALM      30.05S
WAYNESBORO*    FAIR      73  68  86 CALM      30.04S

$$

WVZ021-048>050-054>055-271400-
EASTERN WEST VIRGINIA PANHANDLE

CITY           SKY/WX    TMP DP  RH WIND       PRES   REMARKS
MARTINSBURG    PTSUNNY   75  70  84 CALM      30.01R HAZE
PETERSBURG*    MOSUNNY  N/A N/A N/A CALM      30.02S

$$

VAZ036>039-050-271400-
CENTRAL FOOTHILLS

CITY           SKY/WX    TMP DP  RH WIND       PRES   REMARKS
CHARLOTTESVILL CLOUDY    73  70  90 S5        29.99F FOG
CULPEPER*      CLOUDY    73  68  82 CALM      30.01R
ORANGE*        CLOUDY    72  70  94 CALM      30.01S
GORDONSVILLE*  FAIR      72  70  94 CALM      30.00S
WARRENTON*     FAIR      78  71  79 S5        29.99S

$$

VAZ055>057-271400-
NORTH AND CENTRAL PIEDMONT

CITY           SKY/WX    TMP DP  RH WIND       PRES   REMARKS
FREDERICKSBRG* CLOUDY    76  71  83 S3        29.99S
STAFFORD*      CLOUDY    74  69  83 CALM      30.04S

$$

NCZ024-NYZ072-PAZ021-071-VAZ022-071-271400-
OTHER REGIONAL OBSERVATIONS

CITY           SKY/WX    TMP DP  RH WIND       PRES   REMARKS
NEW YORK CITY  PTSUNNY   76  68  76 W5        30.05R
PHILADELPHIA   CLOUDY    75  70  84 SE6       30.03R
PITTSBURGH     MOSUNNY   74  68  81 VRB3      30.02S
ROANOKE        CLOUDY    75  69  81 CALM      30.05S
RICHMOND       CLOUDY    76  70  82 SE6       30.03R
RALEIGH        PTSUNNY   79  74  84 SW5       30.04R

$$

ANZ530>537-271400-
MARINE OBSERVATIONS

STATION/POSITION TIME  TEMP    WIND        PRES
                       AIR SEA DIR/SP/G
                 (UTC) (F)     (DEG/KT/KT) (MB)
THOMAS PT LIGHT  NOT AVBL
BALT KEY BRIDGE  1200   74     150/  9/ 11 1015.3R
COVE POINT       1200   75     200/ 10/ 12 1016.7F
LEWISETTA        1200   75 82  210/  8/ 10 1016.0R
SOLOMONS ISLAND  1200      82                N/A

$$



USA.gov is the U.S. government's official web portal to all federal, state and local government web resources and services.